[[{"header":{"parameterUnit":"m.s-1","parameterCategory":2,"la1":30.2991,"la2":30.254,"lo1":-89.0895,"lo2":-89.0444,"dy":0.0017,"dx":0.0017,"nx":28,"ny":28,"refTime":"2024-07-23T21:00:00:Z","depth":"0","parameterNumber":2,"parameterNumberName":"U-component_of_CURRENTS"},"data":[0,0,0,0,0,0,0,0,0,0,0,0,0,0,0,0,0,0,0,0,0,0,0,0,0,0,0,0,0,0,0,0,0,0,0,0,0,0,0,0,0,0,0,0,0,0,0,0,0,0,0,0,0,0,0,0,0,0,0.1626,0.1627,0,0.1707,0.1707,0.1708,0.1717,0.1716,0.1716,0.1716,0.1685,0.1685,0.1684,0,0,0,0,0,0,0,0,0,0,0,0,0,0.1483,0.1485,0.1625,0.1627,0.1628,0.1707,0.1707,0.1708,0.1717,0.1716,0.1716,0.1715,0.1685,0.1685,0.1684,0,0,0,0,0,0,0,0,0,0,0,0,0,0.1548,0.1486,0.1625,0.1645,0.1648,0.1706,0.1707,0.1708,0.1717,0.1716,0.1716,0.1715,0.1685,0.1685,0.1684,0.1693,0,0,0.1682,0.1682,0,0,0,0,0,0,0,0,0.1544,0.1553,0.1641,0.1644,0.1648,0.1705,0.1646,0.1699,0.1717,0.1686,0.1716,0.1715,0.1685,0.1684,0.1696,0.1691,0.169,0.1682,0.1682,0.1681,0.1681,0,0,0,0,0,0,0,0.154,0.155,0.1653,0.1643,0.1647,0.1652,0.166,0.1656,0.1682,0.1689,0.1691,0.1707,0.1685,0.1697,0.1695,0.1689,0.1682,0.1681,0.1681,0.1681,0.1742,0.1743,0,0,0,0,0,0,0.154,0.1546,0.1651,0.1656,0.1598,0.1656,0.1665,0.1683,0.1685,0.1687,0.1708,0.1707,0.1698,0.1696,0.1694,0.1782,0.1681,0.1681,0.168,0.174,0.1742,0.1744,0,0,0,0,0,0,0.1536,0.1548,0.1647,0.1606,0.1619,0.1659,0.168,0.1686,0.1705,0.1701,0.17,0.1722,0.1697,0.1695,0.1703,0.1777,0.168,0.168,0.1737,0.174,0.1743,0.1907,0,0,0,0,0,0,0.1532,0.1547,0.1556,0.1606,0.1622,0.1693,0.1682,0.1688,0.1717,0.1718,0.1713,0.171,0.1697,0.1704,0.1702,0.1775,0.1679,0.1735,0.1739,0.1742,0.1899,0.1915,0.1929,0,0,0,0,0,0.1526,0.155,0.1556,0.1569,0.1635,0.1695,0.1703,0.1726,0.1719,0.1737,0.1732,0.171,0.1727,0.1705,0.1702,0.1776,0.1733,0.1737,0.1742,0.1892,0.1912,0.1929,0,0,0,0,0,0,0.1495,0.1555,0.1563,0.1603,0.1649,0.1698,0.1725,0.1733,0.1746,0.1745,0.1725,0.1723,0.1768,0.1734,0.171,0.1802,0.1731,0.1735,0.1846,0.1864,0.1879,0.1927,0.1679,0,0,0,0,0,0.1493,0.1526,0.1582,0.1615,0.1643,0.1682,0.1707,0.1726,0.1749,0.1756,0.1758,0.176,0.1785,0.1791,0.1798,0.1834,0.1848,0.1881,0.1896,0.1909,0.1945,0.202,0.2047,0.1759,0.1759,0.1759,0,0,0.1492,0.1529,0.1548,0.1611,0.165,0.1721,0.1696,0.1748,0.1807,0.1748,0.1815,0.1811,0.1805,0.1864,0.1881,0.1844,0.1999,0.1915,0.1927,0.1956,0.2028,0.2056,0.2082,0.1762,0.1761,0.1761,0,0,0.1533,0.1543,0.1599,0.1642,0.171,0.1743,0.1761,0.182,0.1844,0.1893,0.1889,0.1932,0.1935,0.1983,0.1997,0.2093,0.2078,0.2081,0.2201,0.2273,0.2299,0.2321,0.2387,0.2414,0.2088,0.2088,0.2088,0,0.1531,0.1614,0.1623,0.1696,0.175,0.1761,0.1847,0.188,0.1931,0.1965,0.1928,0.2016,0.2012,0.2125,0.2171,0.2137,0.216,0.2137,0.2298,0.232,0.234,0.2402,0.243,0.2096,0.2095,0.2095,0.2094,0,0.163,0.1695,0.1735,0.1836,0.1882,0.1956,0.201,0.2054,0.2072,0.2103,0.2195,0.2205,0.2259,0.2275,0.2256,0.241,0.2375,0.2313,0.2262,0.238,0.2436,0.2462,0.2109,0.2105,0.2103,0.2101,0,0,0.1659,0.1783,0.1802,0.1867,0.1966,0.2016,0.2116,0.2214,0.228,0.232,0.2423,0.2494,0.249,0.2509,0.2505,0.2579,0.2751,0.2519,0.2519,0.2603,0.2917,0.292,0.2948,0.2713,0.2718,0.2722,0.2903,0,0.1753,0.1901,0.1942,0.2087,0.2177,0.2212,0.23,0.237,0.2415,0.2503,0.2544,0.2618,0.2579,0.2614,0.2696,0.2729,0.2825,0.2708,0.2773,0.2776,0.2781,0.2981,0.2866,0.3021,0.2928,0.2933,0.2936,0,0.1872,0.1951,0.2106,0.2226,0.2266,0.2336,0.2467,0.2544,0.2649,0.2679,0.2766,0.2774,0.2915,0.2839,0.3008,0.293,0.2961,0.2979,0.2984,0.2955,0.283,0.2883,0.3071,0.299,0.2975,0.2972,0.2969,0,0.1924,0.2076,0.2196,0.2243,0.2372,0.2433,0.2495,0.2598,0.2655,0.2793,0.2836,0.2974,0.303,0.3118,0.3154,0.3094,0.3317,0.3221,0.3266,0.3264,0.3168,0.315,0.3304,0.3373,0.3372,0.3372,0.3371,0,0.2037,0.2132,0.2219,0.2289,0.2393,0.2471,0.2583,0.2655,0.2763,0.2833,0.292,0.3001,0.31,0.3206,0.3242,0.336,0.3391,0.3363,0.3344,0.3219,0.3205,0.3123,0.3027,0.3378,0.3377,0.3376,0.3375,0,0.209,0.217,0.2283,0.2396,0.2427,0.2489,0.2585,0.2656,0.2762,0.2865,0.2907,0.305,0.321,0.3308,0.3456,0.3462,0.3483,0.3588,0.3441,0.3405,0.3365,0.328,0.3313,0.3227,0.3703,0.3704,0.3706,0,0.2152,0.2215,0.2309,0.2346,0.2392,0.248,0.2536,0.2642,0.2704,0.2876,0.2921,0.3111,0.3206,0.3458,0.3553,0.369,0.3552,0.3649,0.3534,0.3433,0.3323,0.3166,0.3077,0.3466,0.3465,0.3465,0.3464,0,0.2211,0.2218,0.2275,0.2336,0.239,0.2453,0.2534,0.257,0.2698,0.2781,0.2902,0.2994,0.3253,0.3367,0.3571,0.3624,0.3481,0.3644,0.3577,0.3229,0.3028,0.2908,0.3265,0.3459,0.346,0.346,0.3461,0.3461,0.2204,0.2217,0.2256,0.2303,0.2354,0.2394,0.2409,0.2491,0.256,0.2653,0.2812,0.2912,0.3139,0.342,0.3451,0.3503,0.3463,0.3456,0.3388,0.3261,0.3108,0.348,0.3618,0.3619,0.3621,0.3622,0.3623,0,0.2158,0.217,0.2224,0.2255,0.2262,0.232,0.2378,0.2369,0.239,0.2546,0.2642,0.2823,0.2985,0.3149,0.3322,0.3251,0.3082,0.3211,0.2945,0.289,0.3277,0.3197,0.3202,0.3202,0.3202,0.3202,0.3202,0.3202,0.2129,0.2129,0.215,0.2141,0.2161,0.2136,0.2137,0.214,0.2216,0.2296,0.2392,0.252,0.2799,0.306,0.3086,0.3022,0.2773,0.2712,0.2695,0.2938,0.2954,0.2969,0.2878,0.2815,0.2815,0.2217,0.2212,0.2208]},{"header":{"parameterUnit":"m.s-1","parameterCategory":2,"la1":30.2991,"la2":30.254,"lo1":-89.0895,"lo2":-89.0444,"dy":0.0017,"dx":0.0017,"nx":28,"ny":28,"refTime":"2024-07-23T21:00:00:Z","depth":"0","parameterNumber":3,"parameterNumberName":"V-component_of_CURRENTS"},"data":[0,0,0,0,0,0,0,0,0,0,0,0,0,0,0,0,0,0,0,0,0,0,0,0,0,0,0,0,0,0,0,0,0,0,0,0,0,0,0,0,0,0,0,0,0,0,0,0,0,0,0,0,0,0,0,0,0,0,0.0159,0.0159,0,0.0136,0.0136,0.0135,0.0112,0.0112,0.0112,0.0112,0.0063,0.0062,0.0061,0,0,0,0,0,0,0,0,0,0,0,0,0,0.015,0.015,0.0159,0.0159,0.0159,0.0136,0.0136,0.0135,0.0112,0.0112,0.0112,0.0112,0.0064,0.0062,0.0061,0,0,0,0,0,0,0,0,0,0,0,0,0,0.014,0.015,0.0159,0.0147,0.0146,0.0136,0.0135,0.0135,0.0112,0.0112,0.0112,0.0112,0.0064,0.0062,0.0061,0.0048,0,0,0.0055,0.0054,0,0,0,0,0,0,0,0,0.0141,0.014,0.0149,0.0148,0.0147,0.013,0.0115,0.0106,0.0112,0.0121,0.0112,0.0112,0.0086,0.0082,0.0073,0.0046,0.0044,0.0054,0.0053,0.0052,0.0052,0,0,0,0,0,0,0,0.0141,0.0141,0.0146,0.0149,0.0148,0.0133,0.0131,0.0113,0.01,0.012,0.0119,0.0123,0.0084,0.0075,0.0072,0.0043,0.0054,0.0053,0.0052,0.0051,0.0025,0.0025,0,0,0,0,0,0,0.0153,0.0142,0.0147,0.0146,0.0148,0.0133,0.0131,0.0132,0.0101,0.0097,0.0123,0.0122,0.0078,0.0074,0.007,0.0112,0.0052,0.0051,0.0049,0.0024,0.0025,0.0025,0,0,0,0,0,0,0.0153,0.0154,0.0148,0.0146,0.0145,0.0134,0.0135,0.0132,0.0126,0.0104,0.0099,0.0121,0.0078,0.0072,0.0065,0.0107,0.005,0.0048,0.0024,0.0025,0.0025,0.0158,0,0,0,0,0,0,0.0153,0.0154,0.0155,0.0147,0.0145,0.0156,0.0135,0.0132,0.013,0.0128,0.0101,0.0096,0.0078,0.0068,0.0063,0.0104,0.0046,0.0023,0.0024,0.0025,0.0153,0.0163,0.0172,0,0,0,0,0,0.0153,0.0165,0.0155,0.0156,0.0149,0.0157,0.0155,0.0144,0.013,0.0137,0.0116,0.0097,0.007,0.0067,0.0061,0.0102,0.0023,0.0024,0.0025,0.0149,0.0161,0.0171,0,0,0,0,0,0,0.0166,0.0164,0.0153,0.0164,0.0165,0.0155,0.0165,0.0148,0.0135,0.0136,0.0102,0.0097,0.0105,0.0074,0.0071,0.0092,0.0043,0.0043,0.0139,0.015,0.016,0.0226,0.0045,0,0,0,0,0,0.0168,0.0177,0.0171,0.0182,0.0187,0.0173,0.0173,0.0166,0.0156,0.0151,0.0135,0.0114,0.0103,0.0104,0.0084,0.0096,0.0069,0.0115,0.0125,0.0133,0.018,0.015,0.0162,0.0029,0.0029,0.0029,0,0,0.0181,0.0179,0.0185,0.0186,0.0187,0.0224,0.0173,0.0187,0.0219,0.0147,0.0184,0.0143,0.0109,0.0128,0.013,0.0112,0.0152,0.0135,0.0143,0.0186,0.0152,0.0166,0.0177,0.003,0.003,0.0029,0,0,0.0237,0.0208,0.0249,0.025,0.0259,0.0256,0.0263,0.0259,0.0259,0.0275,0.0236,0.0229,0.0207,0.0208,0.02,0.0246,0.0196,0.0223,0.0341,0.031,0.0322,0.0332,0.0305,0.0312,0.0237,0.0238,0.0238,0,0.0254,0.0299,0.0262,0.0304,0.0325,0.0281,0.034,0.0335,0.0329,0.0345,0.0307,0.0299,0.026,0.0305,0.0323,0.0277,0.0243,0.0306,0.0327,0.0336,0.0344,0.0314,0.032,0.0244,0.0243,0.0243,0.0242,0,0.0347,0.038,0.0406,0.0449,0.0461,0.0497,0.0493,0.051,0.0496,0.049,0.0514,0.0461,0.0464,0.044,0.0402,0.0448,0.0398,0.0336,0.0309,0.0366,0.0329,0.0333,0.0254,0.0251,0.0249,0.0248,0,0,0.0418,0.0464,0.0478,0.0528,0.0538,0.0571,0.0623,0.0667,0.0724,0.0689,0.0757,0.0724,0.0681,0.067,0.061,0.0595,0.0607,0.0506,0.0501,0.0502,0.0542,0.0535,0.0537,0.0539,0.0541,0.0542,0.049,0,0.0517,0.0625,0.0617,0.0735,0.08,0.0772,0.0832,0.0853,0.0856,0.0901,0.0844,0.0868,0.077,0.0776,0.0745,0.0641,0.0624,0.0628,0.0469,0.0466,0.0471,0.0545,0.0484,0.0436,0.0493,0.0494,0.0494,0,0.0636,0.0693,0.0817,0.09,0.0926,0.0982,0.1074,0.1116,0.1141,0.1138,0.1141,0.1079,0.107,0.096,0.0848,0.0848,0.0726,0.0635,0.0628,0.0592,0.0468,0.0387,0.044,0.0237,0.0499,0.0499,0.0499,0,0.0745,0.0845,0.0951,0.0973,0.1051,0.1111,0.1154,0.1199,0.125,0.1293,0.1328,0.1279,0.1256,0.112,0.0921,0.0885,0.0779,0.0689,0.0574,0.057,0.048,0.0467,0.0345,0.0623,0.0623,0.0623,0.0623,0,0.0865,0.0955,0.1012,0.1074,0.1198,0.122,0.1351,0.1381,0.1443,0.1503,0.1454,0.1489,0.1291,0.1188,0.0998,0.0815,0.0827,0.064,0.0576,0.0521,0.0513,0.0299,0.0214,0.0621,0.0622,0.0622,0.0622,0,0.0957,0.1008,0.1125,0.1218,0.1255,0.1339,0.1444,0.1525,0.1585,0.1666,0.1682,0.1644,0.1539,0.1336,0.1112,0.092,0.0634,0.0659,0.0619,0.0555,0.0284,0.021,0.0103,0.0036,0.0555,0.0555,0.0555,0,0.102,0.1083,0.1196,0.1254,0.1297,0.1416,0.1489,0.158,0.166,0.1748,0.1787,0.1746,0.1692,0.1408,0.1104,0.0822,0.0639,0.0565,0.0502,0.0311,0.0179,0.0133,0.0081,0.0411,0.041,0.0409,0.0408,0,0.1092,0.1112,0.1175,0.1283,0.1381,0.1503,0.162,0.1705,0.1799,0.1891,0.1961,0.1937,0.1694,0.1411,0.1052,0.0824,0.0447,0.0537,0.0332,0.009,0.0039,-0.0072,0.0401,0.0398,0.0399,0.04,0.0401,0.0401,0.1109,0.1142,0.1202,0.1299,0.1405,0.1554,0.1659,0.1773,0.1918,0.2038,0.2051,0.2037,0.1632,0.117,0.0875,0.0321,0.0396,0.0118,0.0053,0.0031,-0.0042,0.0444,0.0376,0.0377,0.0377,0.0378,0.0379,0,0.1113,0.1144,0.1219,0.1354,0.1445,0.1526,0.1713,0.1816,0.1963,0.2074,0.2156,0.1909,0.1431,0.0941,0.0237,-0.0142,-0.0272,-0.0331,-0.0456,-0.0479,-0.0081,-0.0099,-0.0263,-0.0263,-0.0263,-0.0263,-0.0263,-0.0262,0.1122,0.1169,0.1204,0.1352,0.1447,0.1625,0.1737,0.1877,0.1994,0.2092,0.2066,0.2037,0.1604,0.0395,-0.0465,-0.0648,-0.0871,-0.0896,-0.096,-0.0769,-0.0734,-0.0701,-0.0741,-0.1037,-0.1038,-0.1363,-0.1367,-0.137]}],[{"header":{"parameterUnit":"m.s-1","parameterCategory":2,"la1":30.2991,"la2":30.254,"lo1":-89.0895,"lo2":-89.0444,"dy":0.0017,"dx":0.0017,"nx":28,"ny":28,"refTime":"2024-07-23T21:00:00:Z","depth":"2","parameterNumber":2,"parameterNumberName":"U-component_of_CURRENTS"},"data":[0,0,0,0,0,0,0,0,0,0,0,0,0,0,0,0,0,0,0,0,0,0,0,0,0,0,0,0,0,0,0,0,0,0,0,0,0,0,0,0,0,0,0,0,0,0,0,0,0,0,0,0,0,0,0,0,0,0,0.1454,0.1455,0,0.1502,0.1502,0.1503,0.1515,0.1515,0.1515,0.1515,0.1489,0.1488,0.1488,0,0,0,0,0,0,0,0,0,0,0,0,0,0.1352,0.1354,0.1454,0.1455,0.1456,0.1502,0.1502,0.1503,0.1515,0.1515,0.1515,0.1515,0.1489,0.1489,0.1488,0,0,0,0,0,0,0,0,0,0,0,0,0,0.1394,0.1354,0.1454,0.147,0.1472,0.1502,0.1502,0.1503,0.1515,0.1515,0.1515,0.1515,0.149,0.1489,0.1488,0.148,0,0,0.1484,0.1484,0,0,0,0,0,0,0,0,0.1392,0.1398,0.1467,0.1469,0.1472,0.1506,0.1457,0.1493,0.1515,0.1495,0.1515,0.1515,0.149,0.1489,0.1494,0.1479,0.1478,0.1484,0.1484,0.1483,0.1483,0,0,0,0,0,0,0,0.1389,0.1396,0.1469,0.1468,0.1471,0.1468,0.1474,0.1464,0.1487,0.1497,0.1498,0.151,0.149,0.1495,0.1493,0.1477,0.1484,0.1483,0.1483,0.1482,0.1509,0.1511,0,0,0,0,0,0,0.1392,0.1393,0.1468,0.1471,0.1435,0.147,0.1477,0.1492,0.1489,0.1491,0.151,0.151,0.1497,0.1494,0.1492,0.1561,0.1483,0.1482,0.1482,0.1508,0.151,0.1511,0,0,0,0,0,0,0.139,0.1398,0.1466,0.1436,0.1445,0.1473,0.1489,0.1493,0.1517,0.1501,0.15,0.1533,0.1497,0.1494,0.1498,0.1556,0.1482,0.1481,0.1506,0.1508,0.151,0.1647,0,0,0,0,0,0,0.1386,0.1397,0.141,0.1436,0.1447,0.1499,0.149,0.1494,0.1525,0.1526,0.152,0.1517,0.1496,0.1499,0.1497,0.1554,0.148,0.1505,0.1507,0.151,0.1641,0.1653,0.1664,0,0,0,0,0,0.1383,0.1404,0.1411,0.142,0.1464,0.15,0.1505,0.1522,0.1526,0.1543,0.1535,0.1518,0.1514,0.1499,0.1496,0.1554,0.1503,0.1507,0.151,0.1635,0.1651,0.1664,0,0,0,0,0,0,0.1366,0.1409,0.1416,0.1449,0.1479,0.1504,0.1524,0.1536,0.1546,0.1544,0.1527,0.1524,0.1557,0.1524,0.1508,0.1566,0.1509,0.1512,0.1606,0.162,0.1632,0.1664,0.1479,0,0,0,0,0,0.1369,0.1397,0.1434,0.146,0.1479,0.1505,0.1523,0.1534,0.1547,0.1553,0.1554,0.1549,0.1564,0.1566,0.1563,0.1584,0.1569,0.1619,0.1631,0.1641,0.1664,0.167,0.1685,0.1521,0.1521,0.1521,0,0,0.1369,0.1397,0.1412,0.1459,0.1482,0.1535,0.1516,0.155,0.1585,0.1546,0.159,0.1591,0.1578,0.1614,0.1626,0.1596,0.1683,0.1645,0.1655,0.1672,0.1675,0.1691,0.1706,0.1523,0.1523,0.1523,0,0,0.1397,0.1411,0.1454,0.1482,0.1526,0.1553,0.1571,0.1608,0.1614,0.1653,0.1643,0.1677,0.1686,0.17,0.1706,0.1774,0.1748,0.1776,0.1864,0.187,0.1884,0.1897,0.1916,0.1929,0.1779,0.178,0.178,0,0.14,0.1458,0.147,0.152,0.1552,0.1573,0.1628,0.1645,0.1676,0.1691,0.1681,0.1729,0.1736,0.1781,0.1836,0.1807,0.1806,0.1816,0.1889,0.19,0.191,0.1926,0.1939,0.1787,0.1786,0.1785,0.1784,0,0.1461,0.1513,0.154,0.162,0.165,0.1697,0.1727,0.1744,0.1768,0.1806,0.1847,0.1843,0.1878,0.1896,0.1908,0.1987,0.1962,0.1907,0.1859,0.1935,0.1947,0.1958,0.1797,0.1794,0.1792,0.179,0,0,0.1482,0.1568,0.1587,0.1629,0.1702,0.1735,0.1779,0.1842,0.189,0.191,0.1972,0.2026,0.2039,0.2047,0.2038,0.2068,0.2177,0.2049,0.2046,0.2082,0.2211,0.2143,0.2147,0.2136,0.2138,0.214,0.2198,0,0.1542,0.1631,0.1673,0.1778,0.1823,0.1842,0.1894,0.1938,0.1981,0.2045,0.2038,0.2111,0.2086,0.2124,0.2151,0.2161,0.2208,0.2167,0.212,0.212,0.206,0.2158,0.1991,0.2024,0.2208,0.2209,0.221,0,0.1604,0.1656,0.1743,0.1836,0.1864,0.1938,0.2006,0.2051,0.2125,0.2158,0.2201,0.2218,0.2277,0.2243,0.2274,0.2248,0.2274,0.2269,0.2269,0.2166,0.2071,0.1972,0.2035,0.2227,0.2226,0.2225,0.2223,0,0.1578,0.1716,0.1779,0.181,0.1915,0.1957,0.2024,0.2099,0.2123,0.2243,0.2271,0.2333,0.2338,0.2361,0.2368,0.2341,0.2398,0.2331,0.2285,0.228,0.2109,0.2085,0.2393,0.2393,0.2392,0.2392,0.2392,0,0.1582,0.1677,0.1786,0.1807,0.1901,0.1979,0.2056,0.2127,0.2216,0.2269,0.2332,0.2358,0.2374,0.239,0.241,0.2377,0.2417,0.2338,0.23,0.2152,0.2132,0.2269,0.2254,0.2394,0.2394,0.2393,0.2393,0,0.1565,0.162,0.1712,0.183,0.1876,0.1938,0.2043,0.2065,0.2189,0.2242,0.228,0.238,0.2407,0.2399,0.2452,0.2396,0.2405,0.2397,0.2236,0.2179,0.2277,0.2269,0.234,0.2339,0.2337,0.2336,0.2335,0,0.1564,0.1606,0.1705,0.1713,0.1784,0.1872,0.1881,0.202,0.203,0.2238,0.2227,0.2341,0.2349,0.2372,0.236,0.235,0.2401,0.2187,0.2104,0.2321,0.2277,0.2271,0.2264,0.194,0.1936,0.1933,0.193,0,0.156,0.1603,0.1631,0.1653,0.1669,0.1684,0.174,0.176,0.1903,0.1952,0.2066,0.2143,0.2222,0.2154,0.2178,0.2154,0.2166,0.2115,0.2387,0.1973,0.1946,0.1902,0.1908,0.19,0.1903,0.1905,0.1906,0.1908,0.154,0.154,0.1532,0.1581,0.1573,0.1524,0.1519,0.1579,0.1607,0.1719,0.182,0.1887,0.1972,0.1917,0.1897,0.1901,0.2007,0.1908,0.1918,0.1931,0.1868,0.1839,0.1763,0.1765,0.1767,0.1768,0.177,0,0.1411,0.1443,0.1458,0.1422,0.1377,0.1464,0.142,0.1393,0.1424,0.1515,0.1565,0.148,0.149,0.1629,0.1587,0.1582,0.1565,0.1529,0.1491,0.1521,0.1548,0.1465,0.1254,0.1252,0.1251,0.125,0,0,0.1333,0.1256,0.1278,0.121,0.1276,0.119,0.1178,0.1204,0.1227,0.1222,0.1272,0.1343,0.1524,0.134,0.1329,0.1295,0.1393,0.1253,0.1661,0.1641,0.1666,0.1757,0.1662,0,0,0,0,0]},{"header":{"parameterUnit":"m.s-1","parameterCategory":2,"la1":30.2991,"la2":30.254,"lo1":-89.0895,"lo2":-89.0444,"dy":0.0017,"dx":0.0017,"nx":28,"ny":28,"refTime":"2024-07-23T21:00:00:Z","depth":"2","parameterNumber":3,"parameterNumberName":"V-component_of_CURRENTS"},"data":[0,0,0,0,0,0,0,0,0,0,0,0,0,0,0,0,0,0,0,0,0,0,0,0,0,0,0,0,0,0,0,0,0,0,0,0,0,0,0,0,0,0,0,0,0,0,0,0,0,0,0,0,0,0,0,0,0,0,-0.0069,-0.0069,0,-0.0126,-0.0127,-0.0128,-0.0159,-0.0159,-0.0158,-0.0158,-0.0206,-0.0208,-0.0209,0,0,0,0,0,0,0,0,0,0,0,0,0,-0.0029,-0.003,-0.0069,-0.0069,-0.007,-0.0126,-0.0127,-0.0128,-0.0159,-0.0159,-0.0158,-0.0158,-0.0206,-0.0207,-0.0209,0,0,0,0,0,0,0,0,0,0,0,0,0,-0.0065,-0.003,-0.0069,-0.009,-0.0092,-0.0125,-0.0127,-0.0128,-0.0159,-0.0159,-0.0158,-0.0158,-0.0205,-0.0207,-0.0209,-0.0229,0,0,-0.0216,-0.0217,0,0,0,0,0,0,0,0,-0.0063,-0.0067,-0.0086,-0.0088,-0.0091,-0.0132,-0.013,-0.016,-0.0159,-0.0137,-0.0158,-0.0158,-0.0179,-0.0183,-0.0199,-0.0231,-0.0233,-0.0216,-0.0218,-0.0219,-0.0219,0,0,0,0,0,0,0,-0.006,-0.0065,-0.0094,-0.0087,-0.0089,-0.011,-0.0115,-0.0136,-0.0161,-0.0139,-0.014,-0.0142,-0.018,-0.0197,-0.02,-0.0234,-0.0216,-0.0218,-0.022,-0.022,-0.0272,-0.0272,0,0,0,0,0,0,-0.0045,-0.0062,-0.0093,-0.0096,-0.0072,-0.0111,-0.0116,-0.0122,-0.0161,-0.0166,-0.0142,-0.0143,-0.0193,-0.0198,-0.0202,-0.0192,-0.0219,-0.0221,-0.0222,-0.0272,-0.0272,-0.0272,0,0,0,0,0,0,-0.0044,-0.0048,-0.009,-0.0078,-0.0084,-0.0111,-0.0117,-0.0123,-0.0125,-0.0163,-0.0168,-0.0136,-0.0193,-0.0199,-0.0216,-0.0195,-0.0222,-0.0224,-0.0272,-0.0272,-0.0272,-0.0194,0,0,0,0,0,0,-0.0043,-0.0047,-0.0042,-0.0077,-0.0084,-0.0096,-0.0118,-0.0124,-0.0126,-0.0127,-0.016,-0.0165,-0.0193,-0.0212,-0.0218,-0.0199,-0.0225,-0.0272,-0.0272,-0.0272,-0.0197,-0.0192,-0.0187,0,0,0,0,0,-0.0041,-0.0033,-0.0042,-0.0045,-0.0078,-0.0095,-0.0101,-0.0122,-0.0125,-0.0123,-0.015,-0.0163,-0.0217,-0.0214,-0.0221,-0.0202,-0.0272,-0.0272,-0.0272,-0.0199,-0.0193,-0.0188,0,0,0,0,0,0,-0.0013,-0.0037,-0.0047,-0.0046,-0.0063,-0.0099,-0.0098,-0.011,-0.0131,-0.0134,-0.0165,-0.0173,-0.0178,-0.0207,-0.0203,-0.022,-0.0246,-0.0247,-0.0188,-0.0183,-0.0178,-0.0157,-0.0227,0,0,0,0,0,-0.0004,-0.0004,-0.0031,-0.0028,-0.0035,-0.0063,-0.0071,-0.0088,-0.0111,-0.012,-0.0139,-0.0167,-0.0187,-0.0197,-0.0222,-0.0232,-0.0269,-0.0226,-0.0221,-0.0217,-0.0206,-0.0254,-0.0253,-0.0273,-0.0273,-0.0273,0,0,0.0009,-0.0004,-0.0003,-0.0022,-0.0039,-0.0037,-0.0067,-0.0077,-0.0083,-0.0122,-0.0127,-0.0147,-0.0187,-0.0197,-0.0202,-0.0216,-0.0233,-0.0217,-0.0213,-0.0204,-0.0254,-0.0252,-0.025,-0.0273,-0.0273,-0.0273,0,0,0.0035,0.0022,0.0031,0.0016,-0.0004,-0.0015,-0.0009,-0.0037,-0.0059,-0.0065,-0.0098,-0.0111,-0.0132,-0.0166,-0.0183,-0.0171,-0.0204,-0.0169,-0.0126,-0.0173,-0.0171,-0.017,-0.0219,-0.0223,-0.0168,-0.0168,-0.0168,0,0.0053,0.0057,0.0033,0.0031,0.0025,0.0005,0.0011,-0.0011,-0.004,-0.005,-0.0054,-0.0099,-0.0121,-0.0153,-0.0133,-0.0158,-0.0185,-0.0139,-0.0165,-0.0165,-0.0165,-0.0215,-0.022,-0.0164,-0.0164,-0.0165,-0.0165,0,0.0071,0.0082,0.0086,0.0085,0.0075,0.0076,0.0044,0.0024,0.0018,0.0019,-0.0008,-0.0057,-0.0074,-0.0086,-0.0092,-0.0106,-0.0125,-0.015,-0.0173,-0.0158,-0.0212,-0.0219,-0.0159,-0.016,-0.0161,-0.0162,0,0,0.0112,0.0102,0.0111,0.0118,0.0097,0.0099,0.007,0.0061,0.0079,0.0038,0.005,0.0005,0.0007,-0.0014,-0.0051,-0.0084,-0.0096,-0.0092,-0.0097,-0.0128,-0.0191,-0.0237,-0.025,-0.0115,-0.0115,-0.0116,-0.0229,0,0.0144,0.0152,0.0143,0.0178,0.0178,0.0136,0.0134,0.0116,0.0117,0.0132,0.0056,0.0087,0.0024,0.0043,-0.0011,-0.0089,-0.0109,-0.0063,-0.0211,-0.0216,-0.0249,-0.0258,-0.0211,-0.031,-0.0236,-0.0238,-0.0238,0,0.0169,0.0174,0.0191,0.0212,0.0215,0.0255,0.0246,0.0234,0.0227,0.0226,0.02,0.019,0.0111,0.0097,-0.0082,-0.0046,-0.0083,-0.0146,-0.0153,-0.0225,-0.0275,-0.0315,-0.0326,-0.0251,-0.025,-0.0249,-0.0248,0,0.0172,0.022,0.0239,0.0237,0.0252,0.0271,0.0297,0.0292,0.0284,0.0318,0.0306,0.0247,0.0201,0.0088,-0.0052,-0.0046,-0.0224,-0.025,-0.0334,-0.0339,-0.0344,-0.0348,-0.03,-0.03,-0.03,-0.0299,-0.0299,0,0.0154,0.021,0.0276,0.0266,0.0342,0.0341,0.038,0.04,0.042,0.0441,0.0377,0.0351,0.0212,0.0087,-0.0031,-0.024,-0.023,-0.0327,-0.0371,-0.0318,-0.0318,-0.0301,-0.03,-0.0304,-0.0303,-0.0302,-0.0301,0,0.0152,0.0162,0.0215,0.028,0.0328,0.0379,0.0428,0.0416,0.0456,0.0458,0.0473,0.0427,0.026,0.0072,-0.0076,-0.0226,-0.0392,-0.0424,-0.0353,-0.0387,-0.0478,-0.0471,-0.0575,-0.0578,-0.058,-0.0582,-0.0583,0,0.0145,0.0175,0.0246,0.0246,0.03,0.0364,0.0351,0.0428,0.04,0.0484,0.0449,0.041,0.0305,-0.002,-0.0183,-0.0432,-0.0416,-0.0528,-0.0512,-0.0474,-0.0506,-0.0496,-0.0486,-0.0492,-0.0492,-0.0493,-0.0493,0,0.0162,0.0203,0.0215,0.0249,0.0261,0.0239,0.0272,0.0304,0.0362,0.0373,0.043,0.0427,0.0201,-0.0001,-0.0279,-0.0419,-0.051,-0.0549,-0.0534,-0.0429,-0.0405,-0.0433,-0.0425,-0.0498,-0.0497,-0.0497,-0.0497,-0.0497,0.0176,0.019,0.0194,0.0254,0.0235,0.0185,0.0215,0.025,0.0306,0.0436,0.0394,0.0392,0.0231,-0.0123,-0.0341,-0.052,-0.0542,-0.062,-0.0614,-0.0609,-0.0579,-0.0559,-0.0676,-0.0677,-0.0677,-0.0678,-0.0678,0,0.0104,0.0152,0.0186,0.0175,0.0168,0.0212,0.0183,0.0229,0.0364,0.0427,0.0472,0.0316,0.0091,-0.0077,-0.0353,-0.0581,-0.0542,-0.0628,-0.0534,-0.0531,-0.0527,-0.0488,-0.0565,-0.0564,-0.0564,-0.0564,0,0,0.0055,0.0039,0.0087,0.0125,0.0192,0.02,0.0229,0.037,0.0422,0.0524,0.0562,0.0451,0.0199,0.0017,-0.0262,-0.0403,-0.0406,-0.0417,-0.0494,-0.035,-0.0343,-0.052,-0.0457,0,0,0,0,0]}],[{"header":{"parameterUnit":"m.s-1","parameterCategory":2,"la1":30.2991,"la2":30.254,"lo1":-89.0895,"lo2":-89.0444,"dy":0.0017,"dx":0.0017,"nx":28,"ny":28,"refTime":"2024-07-23T21:00:00:Z","depth":"4","parameterNumber":2,"parameterNumberName":"U-component_of_CURRENTS"},"data":[0,0,0,0,0,0,0,0,0,0,0,0,0,0,0,0,0,0,0,0,0,0,0,0,0,0,0,0,0,0,0,0,0,0,0,0,0,0,0,0,0,0,0,0,0,0,0,0,0,0,0,0,0,0,0,0,0,0,0.0456,0.0456,0,0.0489,0.049,0.049,0.0521,0.0521,0.0521,0.0521,0.0602,0.0605,0.0607,0,0,0,0,0,0,0,0,0,0,0,0,0,0.0559,0.0556,0.0456,0.0456,0.0456,0.0489,0.049,0.049,0.0521,0.0521,0.0521,0.0521,0.0602,0.0604,0.0607,0,0,0,0,0,0,0,0,0,0,0,0,0,0.0548,0.0555,0.0456,0.0473,0.0475,0.0489,0.049,0.0491,0.0521,0.0521,0.0521,0.0521,0.0601,0.0604,0.0607,0.0623,0,0,0.0617,0.0618,0,0,0,0,0,0,0,0,0.0548,0.0544,0.047,0.0472,0.0474,0.0498,0.0556,0.0536,0.0521,0.0506,0.0521,0.0521,0.057,0.0576,0.0585,0.0627,0.063,0.0617,0.0619,0.062,0.0621,0,0,0,0,0,0,0,0.0549,0.0544,0.0472,0.047,0.0472,0.0527,0.0525,0.0553,0.054,0.0507,0.0509,0.0508,0.0572,0.0582,0.0587,0.0631,0.0617,0.062,0.0621,0.0623,0.0701,0.0701,0,0,0,0,0,0,0.0531,0.0543,0.0471,0.0472,0.0509,0.0524,0.0522,0.0493,0.0539,0.0545,0.0508,0.0509,0.0577,0.0584,0.059,0.0631,0.062,0.0623,0.0625,0.0701,0.0701,0.0701,0,0,0,0,0,0,0.0532,0.0523,0.0469,0.0509,0.0505,0.0521,0.0489,0.0493,0.0522,0.0538,0.0546,0.0534,0.0577,0.0586,0.0625,0.0633,0.0624,0.0627,0.0701,0.0701,0.0701,0.07,0,0,0,0,0,0,0.0535,0.0522,0.0538,0.0506,0.0502,0.0482,0.0489,0.0494,0.0519,0.0522,0.0563,0.0569,0.0578,0.062,0.0628,0.0637,0.063,0.07,0.0701,0.0701,0.0699,0.07,0.07,0,0,0,0,0,0.0538,0.0541,0.0537,0.0531,0.0507,0.0482,0.0486,0.0501,0.052,0.053,0.0559,0.0569,0.0628,0.0623,0.0632,0.0643,0.07,0.0701,0.0701,0.0699,0.07,0.07,0,0,0,0,0,0,0.0589,0.0543,0.0539,0.0527,0.051,0.0486,0.0508,0.0515,0.0547,0.0562,0.058,0.0589,0.0617,0.0635,0.0629,0.0665,0.0663,0.0665,0.0658,0.0659,0.0659,0.0678,0.0632,0,0,0,0,0,0.0605,0.0594,0.0554,0.0545,0.0537,0.0529,0.0538,0.0538,0.0543,0.0559,0.0583,0.061,0.0623,0.0647,0.0659,0.0695,0.0706,0.0704,0.0705,0.0705,0.0726,0.0735,0.0738,0.0703,0.0703,0.0703,0,0,0.0617,0.0595,0.0589,0.0558,0.0547,0.0535,0.0535,0.0536,0.0545,0.0563,0.0603,0.0612,0.063,0.0653,0.0668,0.0675,0.0719,0.0706,0.0706,0.0727,0.0736,0.0739,0.0742,0.0703,0.0703,0.0703,0,0,0.0609,0.0614,0.0593,0.0587,0.0572,0.0567,0.0568,0.0555,0.0574,0.0601,0.0607,0.0625,0.0664,0.0668,0.0677,0.0694,0.071,0.0699,0.0734,0.0741,0.0744,0.0747,0.0756,0.076,0.0712,0.0712,0.0712,0,0.0635,0.0595,0.0588,0.057,0.0574,0.0577,0.0562,0.0581,0.059,0.0606,0.0615,0.0653,0.0667,0.0687,0.0695,0.0695,0.071,0.0728,0.0742,0.0745,0.0748,0.0757,0.0761,0.0712,0.0712,0.0712,0.0712,0,0.0583,0.059,0.0579,0.0555,0.0562,0.0555,0.056,0.0585,0.0612,0.0624,0.0655,0.067,0.0694,0.0694,0.071,0.0737,0.0742,0.073,0.0741,0.0752,0.076,0.0764,0.0712,0.0712,0.0712,0.0712,0,0,0.0531,0.0542,0.0542,0.0553,0.0562,0.0553,0.058,0.0591,0.0623,0.0646,0.0673,0.0697,0.0716,0.0728,0.0738,0.0762,0.0789,0.0775,0.0775,0.0785,0.0821,0.0799,0.0802,0.0787,0.0788,0.0788,0.0814,0,0.0493,0.0479,0.0491,0.0501,0.05,0.0536,0.0563,0.0591,0.0628,0.0664,0.0685,0.072,0.0726,0.0751,0.0769,0.0779,0.0805,0.0785,0.0809,0.081,0.079,0.0808,0.0791,0.0817,0.0818,0.0819,0.082,0,0.043,0.0436,0.0439,0.0495,0.0495,0.0514,0.0568,0.0596,0.0651,0.0685,0.0721,0.0745,0.0781,0.0787,0.0819,0.0812,0.0832,0.0841,0.0841,0.0832,0.0798,0.0807,0.0828,0.0827,0.0827,0.0826,0.0826,0,0.0392,0.041,0.0423,0.0436,0.0485,0.0509,0.0544,0.0603,0.064,0.0713,0.0752,0.0779,0.0818,0.0829,0.0859,0.0849,0.0895,0.0865,0.0863,0.0861,0.0872,0.0869,0.0903,0.0903,0.0903,0.0903,0.0903,0,0.0355,0.0368,0.0416,0.0427,0.0453,0.0501,0.0549,0.0596,0.0664,0.0707,0.0772,0.0808,0.0843,0.0869,0.087,0.0884,0.0898,0.0883,0.0871,0.0869,0.0865,0.0875,0.0871,0.0904,0.0904,0.0904,0.0903,0,0.0314,0.0348,0.0369,0.0423,0.0442,0.0467,0.0546,0.058,0.0671,0.073,0.0761,0.0843,0.0892,0.0915,0.0942,0.0913,0.0913,0.0921,0.0932,0.0917,0.0868,0.0864,0.0902,0.0901,0.0901,0.0901,0.09,0,0.0294,0.0299,0.0355,0.0373,0.0402,0.045,0.0481,0.0569,0.061,0.0738,0.0754,0.0853,0.0898,0.0913,0.0937,0.094,0.094,0.093,0.0893,0.0886,0.0871,0.0867,0.0864,0.09,0.09,0.09,0.0899,0,0.025,0.0278,0.0294,0.0334,0.0369,0.0399,0.046,0.0485,0.0591,0.0671,0.0751,0.0803,0.0871,0.0892,0.0931,0.092,0.0917,0.0926,0.0926,0.0891,0.0884,0.0868,0.0865,0.0898,0.0898,0.0899,0.0899,0,0.0222,0.0222,0.0261,0.0286,0.0325,0.0354,0.0388,0.0451,0.0507,0.0653,0.0665,0.0777,0.0853,0.0884,0.0892,0.0909,0.0893,0.085,0.0854,0.0856,0.0832,0.0815,0.0811,0,0,0,0,0,0.0194,0.0196,0.0215,0.0254,0.0289,0.0321,0.0375,0.0414,0.051,0.0551,0.0618,0.0681,0.0757,0.0801,0.081,0.0863,0.0881,0.0869,0.0829,0.0892,0.0893,0.0871,0,0,0,0,0,0,0.0176,0.0196,0.0201,0.0222,0.0246,0.0286,0.0321,0.0379,0.0413,0.0516,0.0557,0.0644,0.0716,0.0753,0.0801,0.0815,0.0776,0.0932,0.0931,0.0891,0.0892,0.0893,0.0871,0,0,0,0,0]},{"header":{"parameterUnit":"m.s-1","parameterCategory":2,"la1":30.2991,"la2":30.254,"lo1":-89.0895,"lo2":-89.0444,"dy":0.0017,"dx":0.0017,"nx":28,"ny":28,"refTime":"2024-07-23T21:00:00:Z","depth":"4","parameterNumber":3,"parameterNumberName":"V-component_of_CURRENTS"},"data":[0,0,0,0,0,0,0,0,0,0,0,0,0,0,0,0,0,0,0,0,0,0,0,0,0,0,0,0,0,0,0,0,0,0,0,0,0,0,0,0,0,0,0,0,0,0,0,0,0,0,0,0,0,0,0,0,0,0,-0.0043,-0.0043,0,-0.008,-0.0081,-0.0081,-0.0133,-0.0133,-0.0134,-0.0134,-0.0213,-0.0215,-0.0216,0,0,0,0,0,0,0,0,0,0,0,0,0,-0.0065,-0.0065,-0.0043,-0.0043,-0.0043,-0.008,-0.0081,-0.0082,-0.0133,-0.0133,-0.0134,-0.0134,-0.0213,-0.0215,-0.0217,0,0,0,0,0,0,0,0,0,0,0,0,0,-0.0079,-0.0065,-0.0043,-0.0069,-0.0072,-0.0079,-0.0081,-0.0082,-0.0132,-0.0133,-0.0134,-0.0134,-0.0212,-0.0214,-0.0217,-0.0219,0,0,-0.0225,-0.0226,0,0,0,0,0,0,0,0,-0.0078,-0.0078,-0.0066,-0.0068,-0.007,-0.0098,-0.0117,-0.0128,-0.0132,-0.0114,-0.0134,-0.0135,-0.0175,-0.0181,-0.0192,-0.0223,-0.0226,-0.0225,-0.0226,-0.0227,-0.0228,0,0,0,0,0,0,0,-0.0077,-0.0077,-0.0062,-0.0065,-0.0068,-0.0096,-0.0099,-0.012,-0.0145,-0.0116,-0.0119,-0.0115,-0.0177,-0.019,-0.0194,-0.0227,-0.0225,-0.0227,-0.0229,-0.023,-0.0347,-0.0349,0,0,0,0,0,0,-0.0059,-0.0076,-0.0061,-0.0063,-0.0071,-0.0094,-0.0098,-0.0092,-0.0144,-0.0151,-0.0114,-0.0117,-0.0185,-0.0191,-0.0197,-0.0275,-0.0227,-0.023,-0.0231,-0.0345,-0.0347,-0.0349,0,0,0,0,0,0,-0.006,-0.0058,-0.0059,-0.0067,-0.0069,-0.0092,-0.0087,-0.0093,-0.0128,-0.0141,-0.015,-0.0145,-0.0186,-0.0194,-0.0243,-0.0276,-0.0231,-0.0233,-0.0344,-0.0346,-0.0348,-0.0385,0,0,0,0,0,0,-0.006,-0.0057,-0.0064,-0.0065,-0.0067,-0.0072,-0.0086,-0.0093,-0.0121,-0.0126,-0.017,-0.0177,-0.0187,-0.0239,-0.0245,-0.0279,-0.0235,-0.0342,-0.0345,-0.0348,-0.0381,-0.0388,-0.0394,0,0,0,0,0,-0.0061,-0.0067,-0.0064,-0.0063,-0.0069,-0.0071,-0.0076,-0.0098,-0.0122,-0.0135,-0.0176,-0.0177,-0.0263,-0.0242,-0.0249,-0.0284,-0.034,-0.0344,-0.0347,-0.0379,-0.0387,-0.0393,0,0,0,0,0,0,-0.0079,-0.0072,-0.0069,-0.0072,-0.0071,-0.0078,-0.0094,-0.0111,-0.0154,-0.0171,-0.0194,-0.0204,-0.0263,-0.0267,-0.0244,-0.0328,-0.0303,-0.0308,-0.0324,-0.0332,-0.0338,-0.0319,-0.0237,0,0,0,0,0,-0.0081,-0.0083,-0.0076,-0.0076,-0.0078,-0.0091,-0.0102,-0.0116,-0.0142,-0.0163,-0.0198,-0.0239,-0.0279,-0.03,-0.0332,-0.0372,-0.0365,-0.0401,-0.0407,-0.0412,-0.0403,-0.0427,-0.0433,-0.0361,-0.0361,-0.0361,0,0,-0.0083,-0.0081,-0.0081,-0.008,-0.0085,-0.0095,-0.0102,-0.012,-0.0144,-0.0164,-0.0227,-0.0264,-0.0296,-0.0348,-0.0374,-0.0358,-0.043,-0.0416,-0.042,-0.0408,-0.0431,-0.0438,-0.0444,-0.0363,-0.0363,-0.0363,0,0,-0.0089,-0.0089,-0.0096,-0.0099,-0.0106,-0.0113,-0.0122,-0.0145,-0.0174,-0.0221,-0.0256,-0.0309,-0.0363,-0.0396,-0.0417,-0.0474,-0.0465,-0.0494,-0.0506,-0.053,-0.0536,-0.0541,-0.0541,-0.0546,-0.0492,-0.0493,-0.0493,0,-0.0097,-0.0098,-0.0098,-0.0107,-0.0112,-0.0123,-0.0135,-0.0163,-0.0206,-0.0233,-0.0246,-0.0348,-0.0383,-0.0443,-0.0472,-0.0487,-0.049,-0.0475,-0.0536,-0.0541,-0.0545,-0.0544,-0.0549,-0.0495,-0.0494,-0.0494,-0.0494,0,-0.0104,-0.0113,-0.0117,-0.0129,-0.0136,-0.0148,-0.0168,-0.0202,-0.0239,-0.0268,-0.0342,-0.0388,-0.0447,-0.0474,-0.0493,-0.0552,-0.0542,-0.0544,-0.0512,-0.0554,-0.0551,-0.0555,-0.0498,-0.0497,-0.0496,-0.0496,0,0,-0.0112,-0.012,-0.0128,-0.0132,-0.0152,-0.0155,-0.0196,-0.0229,-0.0263,-0.0319,-0.0366,-0.0449,-0.0482,-0.0508,-0.0545,-0.0566,-0.0612,-0.0572,-0.0572,-0.0561,-0.0652,-0.0597,-0.0596,-0.0628,-0.0629,-0.063,-0.0637,0,-0.0123,-0.0134,-0.0142,-0.0162,-0.0167,-0.0186,-0.0214,-0.0251,-0.0294,-0.0346,-0.0402,-0.0464,-0.0493,-0.0532,-0.0564,-0.0602,-0.0624,-0.0608,-0.0621,-0.0621,-0.0559,-0.0599,-0.0633,-0.064,-0.0641,-0.0641,-0.0642,0,-0.0137,-0.0142,-0.0156,-0.0168,-0.0174,-0.0196,-0.0236,-0.0266,-0.0332,-0.0363,-0.0428,-0.0475,-0.0543,-0.0553,-0.062,-0.0612,-0.064,-0.0653,-0.0654,-0.0588,-0.0574,-0.0591,-0.0649,-0.0648,-0.0648,-0.0647,-0.0647,0,-0.0137,-0.0157,-0.0166,-0.0172,-0.0188,-0.0213,-0.0236,-0.0287,-0.0301,-0.0389,-0.04,-0.0492,-0.0521,-0.0581,-0.0626,-0.0636,-0.0667,-0.0685,-0.0653,-0.0648,-0.0677,-0.0671,-0.0724,-0.0724,-0.0724,-0.0724,-0.0724,0,-0.014,-0.0159,-0.0174,-0.0179,-0.019,-0.022,-0.0249,-0.0278,-0.0322,-0.0319,-0.042,-0.0414,-0.0529,-0.0562,-0.0619,-0.0636,-0.0668,-0.0653,-0.0651,-0.0693,-0.0689,-0.0679,-0.0674,-0.0725,-0.0724,-0.0724,-0.0724,0,-0.0141,-0.0152,-0.0155,-0.0177,-0.0186,-0.02,-0.0225,-0.0233,-0.0288,-0.0284,-0.0307,-0.0363,-0.0405,-0.0493,-0.0568,-0.0599,-0.0641,-0.0637,-0.0655,-0.0653,-0.0609,-0.0606,-0.0617,-0.0615,-0.0614,-0.0613,-0.0611,0,-0.014,-0.0145,-0.014,-0.0123,-0.0139,-0.0166,-0.016,-0.0209,-0.0202,-0.0221,-0.0195,-0.0253,-0.0293,-0.0351,-0.0456,-0.0564,-0.0574,-0.0599,-0.0633,-0.0604,-0.0601,-0.06,-0.0599,-0.0609,-0.0609,-0.0608,-0.0608,0,-0.0123,-0.0125,-0.0111,-0.0084,-0.0074,-0.0058,-0.0068,-0.0054,-0.0083,-0.0118,-0.0094,-0.0158,-0.019,-0.0294,-0.0379,-0.0453,-0.0595,-0.0584,-0.0589,-0.0621,-0.0594,-0.0592,-0.0593,-0.0603,-0.0603,-0.0604,-0.0604,0,-0.0092,-0.0078,-0.0052,-0.0039,-0.0005,0.0032,0.002,0.003,0.0025,-0.0004,0.0023,-0.0059,-0.0118,-0.023,-0.0297,-0.0384,-0.0413,-0.0445,-0.0457,-0.0465,-0.0426,-0.037,-0.0306,0,0,0,0,0,-0.005,-0.0037,-0.0008,0.0022,0.0052,0.0054,0.0089,0.0075,0.0057,0.0094,0.0046,0.0013,-0.0098,-0.015,-0.0225,-0.0278,-0.0434,-0.0367,-0.0479,-0.0574,-0.058,-0.0557,0,0,0,0,0,0,-0.0011,0.0022,0.0007,0.0055,0.0068,0.0103,0.0123,0.0119,0.0123,0.01,0.0042,-0.0007,-0.0121,-0.0069,-0.0232,-0.0259,-0.0335,-0.0434,-0.0435,-0.057,-0.0576,-0.0581,-0.0559,0,0,0,0,0]}]]